Location: *
(42.3442°N, 9.2072°E)
Time: 22:47:50
(UTC+00:00)

Spot 2 Rocket - Pass Details

Date: 09 April 2020
Orbit: 757 x 772 km, 98.6° (Epoch: 05 June)

Event Time Altitude Azimuth Distance (km) Brightness Sun altitude
Exits shadow 20:22:13 72° 130° (SE) 811 3.3 -24.8°
Maximum altitude 20:22:40 80° 75° (ENE) 789 3.4 -24.8°
Drops below altitude 10° 20:27:47 10° 349° (N) 2,322 6.6 -25.5°
Sets 20:30:06 0° 348° (NNW) 3,251 7.5 -25.9°
